SL-16 DEB, 39850

Orbit data source: Space-Track

SL-16 DEB, 39850 is space debris in LEO originally from a launch on Fri, 25 Dec 1992 UTC launched from the Tyuratam Missile And Space Complex (TTMTR). Debris objects in space refer to the collection of defunct objects orbiting the Earth. Examples of debris include non-operational satellites, rocket bodies, and fragments generated from explosions, collisions, or faulty payload assembly.

Loading next visibility...
Identifier
39850, 1992-093LC
Orbit
LEO
Country
Flag of CISCIS
Related business
Manufacturer
Unknown
Mission
Spacecraft
Bus & Motor
Unknown
Mass
Unknown
Launch date (UTC)
1992-12-25 (33 years ago)
Launch vehicle
Unknown
Launch site
Tyuratam Missile And Space Complex (TTMTR)
Object type
Payload
Rocket body
Debris
Shape & HBR
Unknown shape, 0.1 m
Radar Cross Section
Small (<0.1 m²)

Expand to show TLE details & history
Last TLE update: 6 days ago

TLE from 6 days ago
0 SL-16 DEB
1 39850U 92093LC  25298.14931748  .00001650  00000-0  96870-3 0  9996
2 39850  71.3372 249.6220 0088502  43.2644 317.5383 14.07535448303255
Epoch: 2025-10-25T03:35Z
TLE epoch observation values (Epoch: 2025-10-25T03:35:01.030Z)
Latitude
0.00004°
Longitude
162.08371°
Altitude
823.176 km
Speed
7.466 km/s
True Right ascension
16h 38m 29s
True Declination
0° 00' 00"
Sunlit
Object was in daylight at epoch
Visualization orbit readout
Latitude
Unknown
Longitude
Unknown
Altitude
Unknown
Speed
Unknown
Apparent Right ascension
Unknown
Apparent Declination
Unknown
Sunlit
N/A
Visualization observer readout
Local Sidereal Time
15:24:01
Azimuth
Unknown
Elevation
Unknown
Doppler factor
Unknown
Orbital elements
Apogee altitude
929.826 km
Perigee altitude
801.607 km
Semi-major axis
7,243.854 km
Eccentricity
0.00885
Inclination
71.3372°
RAAN
249.622°
Arg. of periapsis
43.2644°
True anomaly
316.84803°
Mean anomaly
317.5383°
Eccentric anomaly
317.19373°
Mean motion
3.52037 °/min
Orbital period
102.26 mins
BSTAR
0.0009687
Loading maneuver chart data...
Computing Atmospheric mass density...
Loading historical data...
Loading historical data...
Loading historical data...
Loading historical data...
Loading historical data...
Loading historical data...
Loading historical data...

Documentation

Showing up to 5 results
|